CEB636 RPVP-RPLL

Flight info

Callsign CEB636
Flight time 0h 59m
Altitude 39000
Route DABOY1E DABOY W281 LEGED N884 LUBAN LUBAN1D
Aircraft A339/H-SADE1E2E3GHIJ3J5M1P2RWXY/LB2D1

Departure

Time 2026-05-06 05:26
Airport Puerto Princesa International Airport / PAF Antonio Bautista Air Base (RPVP)

Arrival

Time 2026-05-06 06:25
Airport Ninoy Aquino International Airport (RPLL)
Time Latitude Longitude Altitude Speed Heading
2026-05-06 04:52 9.74096 118.75604 87 ft 0 kts 177°
2026-05-06 05:15 9.74104 118.75604 87 ft 2 kts 191°
2026-05-06 05:16 9.74119 118.75607 87 ft 2 kts 200°
2026-05-06 05:16 9.74131 118.75616 87 ft 2 kts 235°
2026-05-06 05:16 9.74137 118.75629 87 ft 1 kts 266°
2026-05-06 05:16 9.74137 118.75636 87 ft 1 kts 274°
2026-05-06 05:17 9.74137 118.75638 87 ft 0 kts 273°
2026-05-06 05:20 9.74137 118.75636 87 ft 1 kts 273°
2026-05-06 05:20 9.74138 118.75621 87 ft 3 kts 273°
2026-05-06 05:20 9.74141 118.75594 87 ft 4 kts 288°
2026-05-06 05:21 9.74165 118.75566 87 ft 6 kts 321°
2026-05-06 05:21 9.74203 118.75533 87 ft 8 kts 314°
2026-05-06 05:21 9.74227 118.75481 87 ft 8 kts 281°
2026-05-06 05:21 9.74232 118.75415 86 ft 9 kts 272°
2026-05-06 05:22 9.74235 118.75342 87 ft 10 kts 272°
2026-05-06 05:22 9.74238 118.75262 87 ft 11 kts 271°
2026-05-06 05:22 9.74239 118.75176 86 ft 12 kts 266°
2026-05-06 05:22 9.74243 118.75131 86 ft 6 kts 276°
2026-05-06 05:23 9.74246 118.75082 87 ft 7 kts 272°
2026-05-06 05:23 9.74250 118.75001 87 ft 9 kts 272°
2026-05-06 05:23 9.74251 118.74853 87 ft 11 kts 261°
2026-05-06 05:24 9.74254 118.74818 87 ft 1 kts 323°
2026-05-06 05:24 9.74265 118.74824 87 ft 2 kts 60°
2026-05-06 05:24 9.74261 118.74849 87 ft 2 kts 101°
2026-05-06 05:24 9.74261 118.74850 87 ft 0 kts 101°
2026-05-06 05:25 9.74260 118.74854 86 ft 0 kts 100°
2026-05-06 05:25 9.74257 118.74880 87 ft 17 kts 96°
2026-05-06 05:25 9.74236 118.75314 87 ft 106 kts 94°
2026-05-06 05:25 9.74199 118.76316 139 ft 175 kts 89°
2026-05-06 05:26 9.74244 118.77560 1022 ft 180 kts 90°
2026-05-06 05:26 9.74443 118.78787 1973 ft 183 kts 67°
2026-05-06 05:26 9.75254 118.79707 2662 ft 182 kts 27°
2026-05-06 05:26 9.76510 118.80022 3046 ft 197 kts
2026-05-06 05:27 9.77923 118.80170 3410 ft 213 kts
2026-05-06 05:27 9.79443 118.80411 3764 ft 231 kts 11°
2026-05-06 05:27 9.81067 118.80788 4126 ft 249 kts 14°
2026-05-06 05:27 9.82788 118.81270 4600 ft 263 kts 15°
2026-05-06 05:28 9.84534 118.81797 5274 ft 267 kts 16°
2026-05-06 05:28 9.86327 118.82352 6028 ft 269 kts 16°
2026-05-06 05:28 9.88110 118.82893 6779 ft 271 kts 13°
2026-05-06 05:28 9.89957 118.83209 7496 ft 273 kts
2026-05-06 05:29 9.91882 118.83246 7953 ft 287 kts 357°
2026-05-06 05:29 9.93900 118.83185 8470 ft 298 kts 356°
2026-05-06 05:29 9.95985 118.83106 9209 ft 301 kts 356°
2026-05-06 05:29 9.98066 118.83031 9973 ft 303 kts 356°
2026-05-06 05:30 10.00189 118.82959 10571 ft 312 kts 356°
2026-05-06 05:30 10.02399 118.82887 10978 ft 327 kts 356°
2026-05-06 05:30 10.04656 118.82818 11632 ft 333 kts 356°
2026-05-06 05:30 10.06961 118.82749 12398 ft 335 kts 356°
2026-05-06 05:31 10.09276 118.82679 13127 ft 338 kts 356°
2026-05-06 05:31 10.11655 118.82607 13832 ft 343 kts 356°
2026-05-06 05:31 10.14028 118.82536 14528 ft 347 kts 357°
2026-05-06 05:31 10.16431 118.82465 15227 ft 351 kts 357°
2026-05-06 05:32 10.18884 118.82391 15930 ft 356 kts 357°
2026-05-06 05:32 10.21361 118.82317 16633 ft 360 kts 357°
2026-05-06 05:32 10.23841 118.82244 17329 ft 364 kts 358°
2026-05-06 05:32 10.26337 118.82169 18021 ft 368 kts 358°
2026-05-06 05:33 10.28907 118.82093 18724 ft 372 kts 358°
2026-05-06 05:33 10.31490 118.82016 19421 ft 376 kts 358°
2026-05-06 05:33 10.34107 118.81937 20110 ft 379 kts 358°
2026-05-06 05:33 10.36721 118.81860 20779 ft 383 kts 358°
2026-05-06 05:34 10.39394 118.81783 21446 ft 387 kts 359°
2026-05-06 05:34 10.42084 118.81819 22099 ft 390 kts
2026-05-06 05:34 10.44790 118.81986 22741 ft 393 kts
2026-05-06 05:34 10.47483 118.82179 23359 ft 396 kts
2026-05-06 05:35 10.50259 118.82381 23974 ft 399 kts
2026-05-06 05:35 10.53022 118.82581 24567 ft 402 kts
2026-05-06 05:35 10.55774 118.82779 25139 ft 405 kts
2026-05-06 05:35 10.58602 118.82980 25710 ft 407 kts
2026-05-06 05:36 10.61399 118.83177 26252 ft 410 kts
2026-05-06 05:36 10.64245 118.83377 26785 ft 413 kts
2026-05-06 05:36 10.67102 118.83579 27303 ft 415 kts
2026-05-06 05:36 10.69993 118.83782 27812 ft 418 kts
2026-05-06 05:37 10.72896 118.83986 28310 ft 420 kts
2026-05-06 05:37 10.75812 118.84190 28795 ft 422 kts
2026-05-06 05:37 10.78701 118.84394 29261 ft 424 kts
2026-05-06 05:37 10.81660 118.84602 29725 ft 427 kts
2026-05-06 05:38 10.84624 118.84810 30174 ft 429 kts
2026-05-06 05:38 10.87576 118.85017 30608 ft 431 kts
2026-05-06 05:38 10.90565 118.85227 31042 ft 433 kts
2026-05-06 05:38 10.93569 118.85444 31583 ft 431 kts
2026-05-06 05:39 10.96539 118.85654 32085 ft 431 kts
2026-05-06 05:39 10.99507 118.85860 32477 ft 432 kts
2026-05-06 05:39 11.02486 118.86069 32834 ft 435 kts
2026-05-06 05:39 11.05509 118.86279 33181 ft 437 kts
2026-05-06 05:40 11.08529 118.86489 33517 ft 439 kts
2026-05-06 05:40 11.11574 118.86702 33864 ft 441 kts
2026-05-06 05:40 11.14623 118.86917 34202 ft 443 kts
2026-05-06 05:40 11.17666 118.87133 34524 ft 445 kts
2026-05-06 05:41 11.20754 118.87353 34838 ft 447 kts
2026-05-06 05:41 11.23843 118.87572 35153 ft 449 kts
2026-05-06 05:41 11.26951 118.87791 35558 ft 448 kts
2026-05-06 05:41 11.30056 118.88010 36007 ft 446 kts
2026-05-06 05:42 11.33132 118.88227 36431 ft 445 kts
2026-05-06 05:42 11.36189 118.88442 36804 ft 444 kts
2026-05-06 05:42 11.39258 118.88659 37133 ft 444 kts
2026-05-06 05:42 11.42316 118.88874 37408 ft 445 kts
2026-05-06 05:43 11.45382 118.89091 37653 ft 447 kts
2026-05-06 05:43 11.48498 118.89310 37893 ft 448 kts
2026-05-06 05:43 11.51574 118.89527 38131 ft 449 kts
2026-05-06 05:43 11.54714 118.89748 38364 ft 451 kts
2026-05-06 05:44 11.57830 118.89968 38598 ft 452 kts
2026-05-06 05:44 11.60873 118.90183 38810 ft 453 kts
2026-05-06 05:44 11.67187 118.90629 38879 ft 455 kts
2026-05-06 05:45 11.73488 118.91074 38881 ft 455 kts
2026-05-06 05:45 11.79770 118.91518 38882 ft 455 kts
2026-05-06 05:46 11.86033 118.91961 38882 ft 455 kts
2026-05-06 05:46 11.92324 118.92406 38882 ft 455 kts
2026-05-06 05:47 11.98627 118.92852 38882 ft 455 kts
2026-05-06 05:47 12.04923 118.93298 38882 ft 454 kts
2026-05-06 05:48 12.11190 118.93742 38882 ft 454 kts
2026-05-06 05:48 12.17461 118.94187 38882 ft 454 kts
2026-05-06 05:49 12.23695 118.94629 38882 ft 454 kts
2026-05-06 05:49 12.29982 118.95074 38882 ft 454 kts
2026-05-06 05:50 12.36249 118.95519 38882 ft 454 kts
2026-05-06 05:50 12.42531 118.95965 38882 ft 454 kts
2026-05-06 05:51 12.48795 118.96410 38882 ft 454 kts
2026-05-06 05:51 12.55055 118.96854 38449 ft 452 kts
2026-05-06 05:52 12.58151 118.97074 38202 ft 449 kts
2026-05-06 05:52 12.61257 118.97295 37951 ft 446 kts
2026-05-06 05:52 12.64338 118.97514 37688 ft 443 kts
2026-05-06 05:52 12.67371 118.97729 37389 ft 443 kts
2026-05-06 05:53 12.70449 118.97948 36949 ft 443 kts
2026-05-06 05:53 12.73499 118.98164 36407 ft 444 kts
2026-05-06 05:53 12.76586 118.98384 35835 ft 445 kts
2026-05-06 05:53 12.79625 118.98600 35263 ft 445 kts
2026-05-06 05:54 12.82719 118.98820 34686 ft 445 kts
2026-05-06 05:54 12.85770 118.99036 34259 ft 441 kts
2026-05-06 05:54 12.88812 118.99253 33882 ft 437 kts
2026-05-06 05:54 12.91817 118.99470 33508 ft 432 kts
2026-05-06 05:55 12.94761 118.99895 33127 ft 429 kts 10°
2026-05-06 05:55 12.97636 119.00700 32737 ft 426 kts 18°
2026-05-06 05:55 13.00319 119.01839 32400 ft 423 kts 25°
2026-05-06 05:55 13.02859 119.03321 32107 ft 422 kts 32°
2026-05-06 05:56 13.05222 119.05137 31826 ft 426 kts 40°
2026-05-06 05:56 13.07330 119.07230 31546 ft 426 kts 47°
2026-05-06 05:56 13.09203 119.09544 31230 ft 424 kts 51°
2026-05-06 05:56 13.10973 119.11881 30890 ft 422 kts 52°
2026-05-06 05:57 13.12750 119.14256 30521 ft 419 kts 52°
2026-05-06 05:57 13.14526 119.16628 30146 ft 416 kts 52°
2026-05-06 05:57 13.15684 119.18172 29906 ft 414 kts 52°
2026-05-06 05:57 13.18009 119.21259 29435 ft 410 kts 52°
2026-05-06 05:58 13.19740 119.23553 29089 ft 407 kts 52°
2026-05-06 05:58 13.21477 119.25851 28735 ft 404 kts 52°
2026-05-06 05:58 13.23168 119.28088 28388 ft 402 kts 52°
2026-05-06 05:58 13.24871 119.30340 28033 ft 399 kts 52°
2026-05-06 05:59 13.26564 119.32579 27678 ft 397 kts 52°
2026-05-06 05:59 13.28254 119.34813 27331 ft 394 kts 51°
2026-05-06 05:59 13.29912 119.37006 26992 ft 391 kts 51°
2026-05-06 05:59 13.31587 119.39222 26641 ft 389 kts 51°
2026-05-06 06:00 13.33213 119.41373 26297 ft 386 kts 51°
2026-05-06 06:00 13.34858 119.43549 25948 ft 384 kts 51°
2026-05-06 06:00 13.36484 119.45702 25600 ft 382 kts 51°
2026-05-06 06:00 13.38103 119.47846 25253 ft 379 kts 51°
2026-05-06 06:01 13.39705 119.49967 24905 ft 377 kts 51°
2026-05-06 06:01 13.41306 119.52088 24561 ft 374 kts 51°
2026-05-06 06:01 13.42891 119.54187 24215 ft 372 kts 51°
2026-05-06 06:01 13.44454 119.56259 23871 ft 370 kts 51°
2026-05-06 06:02 13.46021 119.58337 23527 ft 367 kts 51°
2026-05-06 06:02 13.47572 119.60394 23182 ft 365 kts 51°
2026-05-06 06:02 13.49126 119.62454 22837 ft 363 kts 51°
2026-05-06 06:02 13.50664 119.64494 22492 ft 361 kts 51°
2026-05-06 06:03 13.52180 119.66505 22146 ft 359 kts 51°
2026-05-06 06:03 13.53688 119.68507 21810 ft 357 kts 51°
2026-05-06 06:03 13.55205 119.70521 21469 ft 355 kts 51°
2026-05-06 06:03 13.56703 119.72509 21127 ft 353 kts 51°
2026-05-06 06:04 13.57705 119.73840 20896 ft 352 kts 51°
2026-05-06 06:04 13.59692 119.76479 20442 ft 350 kts 51°
2026-05-06 06:04 13.61172 119.78446 20100 ft 348 kts 51°
2026-05-06 06:04 13.62649 119.80408 19759 ft 347 kts 51°
2026-05-06 06:05 13.64115 119.82356 19420 ft 345 kts 51°
2026-05-06 06:05 13.65575 119.84298 19078 ft 344 kts 51°
2026-05-06 06:05 13.67048 119.86256 18735 ft 342 kts 51°
2026-05-06 06:05 13.68488 119.88171 18398 ft 341 kts 51°
2026-05-06 06:06 13.69455 119.89458 18169 ft 340 kts 50°
2026-05-06 06:06 13.71364 119.91998 17719 ft 339 kts 50°
2026-05-06 06:06 13.72797 119.93904 17382 ft 337 kts 50°
2026-05-06 06:06 13.74238 119.95822 17039 ft 336 kts 50°
2026-05-06 06:07 13.75651 119.97704 16703 ft 335 kts 50°
2026-05-06 06:07 13.77074 119.99599 16364 ft 334 kts 50°
2026-05-06 06:07 13.78472 120.01461 16028 ft 333 kts 50°
2026-05-06 06:07 13.79889 120.03347 15689 ft 332 kts 50°
2026-05-06 06:08 13.81287 120.05211 15355 ft 330 kts 50°
2026-05-06 06:08 13.82694 120.07085 15016 ft 329 kts 50°
2026-05-06 06:08 13.84080 120.08934 14681 ft 328 kts 50°
2026-05-06 06:08 13.85472 120.10792 14344 ft 328 kts 51°
2026-05-06 06:09 13.86831 120.12657 14009 ft 327 kts 51°
2026-05-06 06:09 13.88176 120.14535 13674 ft 326 kts 52°
2026-05-06 06:09 13.89518 120.16414 13338 ft 325 kts 51°
2026-05-06 06:09 13.90838 120.18259 13010 ft 324 kts 51°
2026-05-06 06:10 13.92172 120.20121 12681 ft 323 kts 51°
2026-05-06 06:10 13.93507 120.21983 12352 ft 322 kts 51°
2026-05-06 06:10 13.94830 120.23827 12025 ft 321 kts 51°
2026-05-06 06:10 13.96145 120.25661 11700 ft 320 kts 51°
2026-05-06 06:11 13.97473 120.27512 11375 ft 319 kts 51°
2026-05-06 06:11 13.98775 120.29327 11059 ft 318 kts 51°
2026-05-06 06:11 14.00081 120.31149 10742 ft 317 kts 51°
2026-05-06 06:11 14.01386 120.32966 10425 ft 316 kts 52°
2026-05-06 06:12 14.02683 120.34778 10137 ft 314 kts 52°
2026-05-06 06:12 14.03946 120.36543 10088 ft 303 kts 52°
2026-05-06 06:12 14.05164 120.38244 10072 ft 291 kts 52°
2026-05-06 06:12 14.06357 120.39908 9843 ft 289 kts 52°
2026-05-06 06:13 14.07548 120.41570 9557 ft 288 kts 52°
2026-05-06 06:13 14.08732 120.43220 9281 ft 288 kts 52°
2026-05-06 06:13 14.09916 120.44875 9008 ft 287 kts 52°
2026-05-06 06:13 14.11094 120.46519 8743 ft 285 kts 52°
2026-05-06 06:14 14.12283 120.48177 8468 ft 284 kts 52°
2026-05-06 06:14 14.13441 120.49792 8204 ft 283 kts 53°
2026-05-06 06:14 14.14606 120.51421 7934 ft 282 kts 52°
2026-05-06 06:14 14.15771 120.53044 7671 ft 281 kts 53°
2026-05-06 06:15 14.16924 120.54653 7401 ft 281 kts 53°
2026-05-06 06:15 14.18077 120.56272 7135 ft 280 kts 53°
2026-05-06 06:15 14.19237 120.57898 6868 ft 280 kts 53°
2026-05-06 06:15 14.20391 120.59486 6606 ft 279 kts 51°
2026-05-06 06:16 14.21730 120.60940 6339 ft 278 kts 40°
2026-05-06 06:16 14.23247 120.62154 6080 ft 277 kts 35°
2026-05-06 06:16 14.24813 120.63287 5820 ft 277 kts 34°
2026-05-06 06:16 14.26389 120.64420 5557 ft 276 kts 34°
2026-05-06 06:17 14.27437 120.65170 5383 ft 276 kts 34°
2026-05-06 06:17 14.29523 120.66674 5119 ft 272 kts 35°
2026-05-06 06:17 14.31036 120.67773 5109 ft 261 kts 35°
2026-05-06 06:17 14.32457 120.68880 5100 ft 249 kts 43°
2026-05-06 06:18 14.33525 120.70199 5003 ft 240 kts 57°
2026-05-06 06:18 14.34380 120.71698 4670 ft 243 kts 62°
2026-05-06 06:18 14.35185 120.73229 4364 ft 244 kts 61°
2026-05-06 06:18 14.35994 120.74766 4084 ft 244 kts 62°
2026-05-06 06:19 14.36810 120.76287 3822 ft 243 kts 62°
2026-05-06 06:19 14.37619 120.77805 3543 ft 240 kts 62°
2026-05-06 06:19 14.38417 120.79282 3295 ft 230 kts 62°
2026-05-06 06:19 14.39194 120.80718 3139 ft 226 kts 62°
2026-05-06 06:20 14.39940 120.82100 3086 ft 216 kts 62°
2026-05-06 06:20 14.40645 120.83405 3053 ft 204 kts 62°
2026-05-06 06:20 14.41318 120.84646 3018 ft 190 kts 62°
2026-05-06 06:20 14.41930 120.85775 2979 ft 172 kts 62°
2026-05-06 06:21 14.42489 120.86801 2928 ft 157 kts 63°
2026-05-06 06:21 14.43021 120.87793 2884 ft 159 kts 60°
2026-05-06 06:21 14.43561 120.88795 2677 ft 159 kts 60°
2026-05-06 06:21 14.44100 120.89778 2445 ft 157 kts 62°
2026-05-06 06:22 14.44634 120.90752 2235 ft 154 kts 63°
2026-05-06 06:22 14.45156 120.91720 2042 ft 155 kts 62°
2026-05-06 06:22 14.45676 120.92682 1847 ft 153 kts 63°
2026-05-06 06:22 14.46187 120.93632 1644 ft 150 kts 63°
2026-05-06 06:23 14.46687 120.94560 1445 ft 146 kts 63°
2026-05-06 06:23 14.47171 120.95457 1254 ft 143 kts 63°
2026-05-06 06:23 14.47680 120.96352 1012 ft 147 kts 57°
2026-05-06 06:23 14.48233 120.97218 752 ft 146 kts 57°
2026-05-06 06:24 14.48763 120.98118 486 ft 145 kts 62°
2026-05-06 06:24 14.49227 120.99010 304 ft 141 kts 61°
2026-05-06 06:24 14.49719 120.99887 157 ft 140 kts 61°
2026-05-06 06:24 14.50193 121.00729 94 ft 126 kts 62°
2026-05-06 06:25 14.50534 121.01361 93 ft 73 kts 60°
2026-05-06 06:25 14.50721 121.01698 93 ft 46 kts 60°
2026-05-06 06:25 14.50971 121.02143 93 ft 21 kts 48°
2026-05-06 06:26 14.51076 121.02245 93 ft 16 kts 43°
2026-05-06 06:26 14.51136 121.02298 93 ft 7 kts 26°
2026-05-06 06:26 14.51162 121.02302 93 ft 7 kts 350°
2026-05-06 06:26 14.51188 121.02263 93 ft 8 kts 264°
2026-05-06 06:27 14.51160 121.02203 93 ft 10 kts 240°
2026-05-06 06:27 14.51122 121.02134 93 ft 11 kts 240°
2026-05-06 06:27 14.51083 121.02063 93 ft 8 kts 240°
2026-05-06 06:27 14.51066 121.02004 93 ft 9 kts 283°
2026-05-06 06:28 14.51110 121.01949 93 ft 10 kts 314°
2026-05-06 06:28 14.51166 121.01890 93 ft 12 kts 314°
2026-05-06 06:28 14.51229 121.01825 93 ft 13 kts 315°
2026-05-06 06:28 14.51297 121.01755 93 ft 14 kts 315°
2026-05-06 06:29 14.51369 121.01680 93 ft 15 kts 314°
2026-05-06 06:29 14.51445 121.01601 93 ft 15 kts 315°
2026-05-06 06:29 14.51524 121.01519 93 ft 16 kts 314°
2026-05-06 06:29 14.51605 121.01435 93 ft 16 kts 316°
2026-05-06 06:30 14.51690 121.01348 93 ft 17 kts 315°
2026-05-06 06:30 14.51753 121.01282 93 ft 7 kts 317°
2026-05-06 06:30 14.51793 121.01275 93 ft 4 kts 18°
2026-05-06 06:30 14.51827 121.01300 93 ft 4 kts 39°
2026-05-06 06:31 14.51841 121.01312 93 ft 1 kts 42°
2026-05-06 06:31 14.51843 121.01314 93 ft 0 kts 42°